HB9KNR Weather Reports


Display with metric or nautical units.
time (UTC)temp
F
wind
direction
speed
MPH
gust
MPH
rain 1hr
in
rain 24hr
in
rain mn
in
humidity
%
barometer
mb
20260903045517 57 0.0 0.0 0.00 0.00 0.00 87 1023.5
20260903044517 57 0.0 0.0 0.00 0.00 0.00 86 1023.3
20260903043517 57 0.0 0.0 0.00 0.00 0.00 86 1023.0
20260903042517 57 0.0 0.0 0.00 0.00 0.00 85 1022.9
20260903041537 57 0.0 0.0 0.00 0.00 0.00 85 1023.0
20260903040517 57 0.0 0.0 0.00 0.00 0.00 85 1023.2
20260903035557 57 0.0 0.0 0.00 0.00 0.00 84 1023.2
20260903034537 57 0.0 0.0 0.00 0.00 0.00 84 1023.2
20260903033517 58 0.0 0.0 0.00 0.00 0.00 84 1023.3
20260903032517 58 0.0 0.0 0.00 0.00 0.00 83 1023.1
20260903031517 58 0.0 0.0 0.00 0.00 0.00 82 1023.1
20260903030517 58 0.0 0.0 0.00 0.00 0.00 81 1023.0
20260903025517 59 0.0 0.0 0.00 0.00 0.00 81 1023.0
20260903024517 59 0.0 0.0 0.00 0.00 0.00 81 1023.0
20260903023517 59 0.0 0.0 0.00 0.00 0.00 81 1022.8
20260903022517 59 0.0 0.0 0.00 0.00 0.00 80 1022.9
20260903021517 60 0.0 0.0 0.00 0.00 0.00 80 1023.0
20260903020517 60 0.0 0.0 0.00 0.00 0.00 79 1023.1
20260903015517 60 0.0 0.0 0.00 0.00 0.00 79 1023.1
20260903014517 61 0.0 0.0 0.00 0.00 0.00 78 1023.1
20260903013517 61 0.0 0.0 0.00 0.00 0.00 79 1023.1
20260903012517 61 0.0 0.0 0.00 0.00 0.00 79 1023.1
20260903011517 62 0.0 0.0 0.00 0.00 0.00 78 1023.2
20260903010517 62 0.0 0.0 0.00 0.00 0.00 77 1023.2
20260903005516 62 0.0 0.0 0.00 0.00 0.00 76 1023.1
20260903004537 62 0.0 0.0 0.00 0.00 0.00 75 1023.0
20260903003517 62 0.0 0.0 0.00 0.00 0.00 75 1022.9
20260903002537 62 0.0 0.0 0.00 0.00 0.00 75 1022.9
20260903001557 63 0.0 0.0 0.00 0.00 0.00 75 1022.9
20260903000516 63 0.0 0.0 0.00 0.00 0.00 75 1022.9
20260902235516 63 0.0 0.0 0.00 0.00 0.00 73 1022.8
20260902234516 63 0.0 0.0 0.00 0.00 0.00 72 1022.9
20260902233516 64 0.0 0.0 0.00 0.00 0.00 71 1022.9
20260902232537 64 0.0 0.0 0.00 0.00 0.00 71 1022.8
20260902231517 65 0.0 0.0 0.00 0.00 0.00 71 1022.9
20260902230517 65 0.0 0.0 0.00 0.00 0.00 70 1023.0
20260902225517 65 0.0 0.0 0.00 0.00 0.00 68 1022.9
20260902224516 66 0.0 0.0 0.00 0.00 0.00 67 1022.9
20260902223537 66 0.0 0.0 0.00 0.00 0.00 67 1022.9
20260902222517 66 0.0 0.0 0.00 0.00 0.00 67 1022.9
20260902221516 67 0.0 0.0 0.00 0.00 0.00 66 1022.8
20260902220516 67 0.0 0.0 0.00 0.00 0.00 65 1022.6
20260902215517 67 0.0 0.0 0.00 0.00 0.00 64 1022.6
20260902214517 68 0.0 0.0 0.00 0.00 0.00 64 1022.6
20260902213516 68 0.0 0.0 0.00 0.00 0.00 63 1022.5
20260902212517 68 0.0 0.0 0.00 0.00 0.00 63 1022.5
20260902211517 68 0.0 0.0 0.00 0.00 0.00 63 1022.4
20260902210517 68 0.0 0.0 0.00 0.00 0.00 63 1022.3
20260902205517 68 0.0 1.0 0.00 0.00 0.00 63 1022.2
20260902204557 68 0.0 0.0 0.00 0.00 0.00 62 1022.1
20260902203517 68 0.0 0.0 0.00 0.00 0.00 61 1022.0
20260902202517 69 0.0 0.0 0.00 0.00 0.00 61 1022.0
20260902201517 69 0.0 0.0 0.00 0.00 0.00 60 1021.9
20260902200517 69 0.0 0.0 0.00 0.00 0.00 59 1022.0
20260902195517 70 0.0 0.0 0.00 0.00 0.00 59 1021.8
20260902194517 70 0.0 0.0 0.00 0.00 0.00 58 1021.9
20260902193517 70 0.0 0.0 0.00 0.00 0.00 57 1021.8
20260902192657 71 0.0 0.0 0.00 0.00 0.00 56 1021.6
20260902191517 71 0.0 0.0 0.00 0.00 0.00 56 1021.6
20260902190517 71 0.0 0.0 0.00 0.00 0.00 55 1021.6
20260902185517 72 0.0 0.0 0.00 0.00 0.00 55 1021.2
20260902184517 72 0.0 0.0 0.00 0.00 0.00 53 1021.2
20260902183517 72 0.0 0.0 0.00 0.00 0.00 52 1021.0
20260902182517 73 0.0 0.0 0.00 0.00 0.00 51 1020.8
20260902181517 73 0.0 0.0 0.00 0.00 0.00 50 1020.7
20260902180517 73 0.0 0.0 0.00 0.00 0.00 49 1020.7
20260902175517 73 0.0 0.0 0.00 0.00 0.00 48 1020.5
20260902174517 74 0.0 0.0 0.00 0.00 0.00 47 1020.5
20260902173517 74 0.0 0.0 0.00 0.00 0.00 47 1020.4
20260902172517 75 0.0 0.0 0.00 0.00 0.00 47 1020.4
20260902171537 75 0.0 0.0 0.00 0.00 0.00 47 1020.4
20260902170517 75 0.0 0.0 0.00 0.00 0.00 46 1020.3
20260902165517 76 0.0 0.0 0.00 0.00 0.00 45 1020.2
20260902164517 76 0.0 0.0 0.00 0.00 0.00 45 1020.3
20260902163537 76 0.0 0.0 0.00 0.00 0.00 46 1020.3
20260902162517 77 0.0 0.0 0.00 0.00 0.00 41 1020.3
20260902161517 78 0.0 0.0 0.00 0.00 0.00 41 1020.3
20260902160517 78 0.0 0.0 0.00 0.00 0.00 39 1020.3
20260902155517 79 0.0 4.0 0.00 0.00 0.00 37 1020.3
20260902154517 79 0.0 0.0 0.00 0.00 0.00 42 1020.3
20260902153517 79 0.0 3.0 0.00 0.00 0.00 41 1020.3
20260902152517 79 0.0 2.0 0.00 0.00 0.00 41 1020.3
20260902151517 79 0.0 0.0 0.00 0.00 0.00 43 1020.5
20260902150537 78 0.0 0.0 0.00 0.00 0.00 45 1020.4
20260902145517 77 0.0 0.0 0.00 0.00 0.00 49 1020.5
20260902144517 78 0.0 0.0 0.00 0.00 0.00 47 1020.5
20260902143517 79 0.0 0.0 0.00 0.00 0.00 40 1020.6
20260902142517 79 0.0 0.0 0.00 0.00 0.00 43 1020.6
20260902141517 78 0.0 0.0 0.00 0.00 0.00 48 1020.7
20260902140517 79 0.0 0.0 0.00 0.00 0.00 47 1020.7
20260902135517 78 0.0 1.0 0.00 0.00 0.00 46 1020.7
20260902134517 78 0.0 0.0 0.00 0.00 0.00 50 1020.8
20260902133517 79 0.0 8.0 0.00 0.00 0.00 49 1020.8
20260902132537 79 0.0 1.0 0.00 0.00 0.00 45 1021.1
20260902131517 78 0.0 0.0 0.00 0.00 0.00 47 1021.0
20260902130517 78 0.0 0.0 0.00 0.00 0.00 46 1021.2
20260902125517 77 0.0 1.0 0.00 0.00 0.00 51 1021.2
20260902124517 77 0.0 0.0 0.00 0.00 0.00 54 1021.2
20260902123516 77 0.0 0.0 0.00 0.00 0.00 57 1021.3
20260902122537 77 0.0 0.0 0.00 0.00 0.00 55 1021.3
20260902121517 76 0.0 0.0 0.00 0.00 0.00 56 1021.4
20260902120517 76 0.0 0.0 0.00 0.00 0.00 55 1021.4
20260902115517 76 0.0 0.0 0.00 0.00 0.00 60 1021.6
20260902114536 75 0.0 0.0 0.00 0.00 0.00 63 1021.5
20260902113517 75 0.0 0.0 0.00 0.00 0.00 62 1021.6
20260902112516 74 0.0 0.0 0.00 0.00 0.00 65 1021.8
20260902111516 74 0.0 0.0 0.00 0.00 0.00 67 1022.0
20260902110517 74 0.0 3.0 0.00 0.00 0.00 65 1021.9
20260902105517 74 0.0 0.0 0.00 0.00 0.00 66 1022.1
20260902104517 72 0.0 0.0 0.00 0.00 0.00 67 1022.0
20260902103517 71 0.0 0.0 0.00 0.00 0.00 68 1022.1
20260902102516 71 0.0 0.0 0.00 0.00 0.00 72 1022.3
20260902101517 71 0.0 0.0 0.00 0.00 0.00 69 1022.5
20260902100516 70 0.0 0.0 0.00 0.00 0.00 72 1022.4
20260902095537 70 0.0 0.0 0.00 0.00 0.00 71 1022.5
20260902094517 70 0.0 0.0 0.00 0.00 0.00 71 1022.5
20260902093537 67 0.0 0.0 0.00 0.00 0.00 77 1022.3
20260902092517 68 0.0 0.0 0.00 0.00 0.00 76 1022.3
20260902091517 67 0.0 0.0 0.00 0.00 0.00 78 1022.2
20260902090517 67 0.0 0.0 0.00 0.00 0.00 77 1022.3
20260902085517 68 0.0 0.0 0.00 0.00 0.00 76 1022.2
20260902084537 67 0.0 0.0 0.00 0.00 0.00 77 1022.0
20260902083516 66 0.0 0.0 0.00 0.00 0.00 78 1021.8
20260902082537 66 0.0 0.0 0.00 0.00 0.00 80 1022.0
20260902081517 65 0.0 0.0 0.00 0.00 0.00 81 1021.9
20260902080516 65 0.0 0.0 0.00 0.00 0.00 80 1021.8
20260902075517 64 0.0 0.0 0.00 0.00 0.00 81 1021.8
20260902074516 64 0.0 0.0 0.00 0.00 0.00 84 1021.8
20260902073516 63 0.0 0.0 0.00 0.00 0.00 88 1022.0
20260902072516 63 0.0 0.0 0.00 0.00 0.00 91 1021.8
20260902071516 62 0.0 0.0 0.00 0.00 0.00 92 1021.9
20260902070516 61 0.0 0.0 0.00 0.00 0.00 92 1021.9
20260902065537 60 0.0 0.0 0.00 0.00 0.00 93 1021.9
20260902064536 59 0.0 0.0 0.00 0.00 0.00 93 1022.0
20260902063516 58 0.0 0.0 0.00 0.00 0.00 93 1022.0
20260902062516 57 0.0 0.0 0.00 0.00 0.00 93 1022.0
20260902061517 56 0.0 0.0 0.00 0.00 0.00 93 1021.9
20260902060516 55 0.0 0.0 0.00 0.00 0.00 92 1021.8
20260902055516 55 0.0 0.0 0.00 0.00 0.00 92 1021.8
20260902054516 54 0.0 0.0 0.00 0.00 0.00 92 1021.6
20260902053516 54 0.0 0.0 0.00 0.00 0.00 91 1021.6
20260902052516 54 0.0 0.0 0.00 0.00 0.00 91 1021.6
20260902051536 53 0.0 0.0 0.00 0.00 0.00 90 1021.6
20260902050516 53 0.0 0.0 0.00 0.00 0.00 90 1021.5